Location: Canet
(43.3261°N, 5.3723°E)
Time: 08:08:22
(UTC+00:00)

X-37B - Visible Passes

Search period start: 18 September 2021 00:00
Search period end: 28 September 2021 00:00
Orbit: 381 x 393 km, 45.0° (Epoch: 29 August)

Date Brightness Start Highest point End Pass type
(mag) Time Alt. Az. Time Alt. Az. Time Alt. Az.
19 Sep 3.3 04:39:14 10° S 04:41:03 14° SE 04:42:53 10° ESE visible
21 Sep 2.4 04:18:17 11° SSW 04:20:42 24° SSE 04:23:21 10° E visible
22 Sep 3.2 03:22:47 14° SE 03:22:47 14° SE 03:24:22 10° ESE visible
22 Sep 0.8 04:55:36 10° WSW 04:58:44 65° SSE 05:01:53 10° ENE visible
23 Sep 1.4 03:59:30 31° SSW 04:00:25 41° SSE 04:03:25 10° E visible
24 Sep 3.4 03:03:52 16° ESE 03:03:52 16° ESE 03:04:49 10° E visible
24 Sep 0.5 04:36:10 16° WSW 04:38:35 86° N 04:41:46 10° ENE visible
25 Sep 0.9 03:40:29 61° SE 03:40:29 61° SE 03:43:20 10° ENE visible
26 Sep 4.1 02:44:46 11° E 02:44:46 11° E 02:44:53 10° E visible
26 Sep 0.7 04:17:04 29° W 04:18:28 68° N 04:21:37 10° ENE visible
27 Sep 2.3 03:21:20 33° ENE 03:21:20 33° ENE 03:23:13 10° ENE visible
27 Sep 0.9 04:53:40 10° WNW 04:56:49 62° N 04:59:58 10° E visible
